OBJECT H, 57173

Orbit data source: Space-Track

You're viewing an Uncataloged Satellite

Recently launched and/or uncataloged satellites may have evolving metadata. Metadata may include but not limited to: Owner, Maufacturer, Bus, Motor, and Mission.

OBJECT H, 57173 is a satellite in SSO that was launched on Tue, 27 Jun 2023 UTC via a SOYUZ-2-1B launch vehicle from the Vostochny Cosmodrome (VOSTO). Unknown objects in Earth's orbit typically refer to objects detected orbiting the Earth but have not yet been identified or cataloged. These objects could be anything from previously untracked satellites, spent rocket stages, debris from satellite collisions, or even natural meteoroids temporarily captured by Earth's gravity.

Loading next visibility...
Identifier
57173, 2023-091H
Orbit
SSO
Country
Flag of TBDTBD
Related business
None
Manufacturer
Unknown
Mission
Operational Commercial Communications
Bus & Motor
Unknown
Mass
Unknown
Launch date (UTC)
2023-06-27 (3 years ago)
Launch vehicle
SOYUZ-2-1B
Launch site
Vostochny Cosmodrome (VOSTO)
Object type
Unknown
Shape & HBR
Box, 0.2 m
Radar Cross Section
0.035 m², Medium (>0.1 m² and < 1m²)

Expand to show TLE details & history
Last TLE update: 22 hours ago

TLE from 22 hours ago
0 OBJECT H
1 57173U 23091H   26207.57925865  .00011946  00000-0  42079-3 0  9998
2 57173  97.5032 271.1064 0008426 343.7287  16.3681 15.29422789170323
Epoch: 2026-07-26T13:54Z
TLE epoch observation values (Epoch: 2026-07-26T13:54:07.947Z)
Latitude
-0.00003°
Longitude
118.29813°
Altitude
475.094 km
Speed
7.631 km/s
True Right ascension
18h 04m 25s
True Declination
0° 00' 00"
Sunlit
Object was in full shadow at epoch
Visualization orbit readout
Latitude
Unknown
Longitude
Unknown
Altitude
Unknown
Speed
Unknown
Apparent Right ascension
Unknown
Apparent Declination
Unknown
Sunlit
N/A
Visualization observer readout
Local Sidereal Time
01:10:56
Azimuth
Unknown
Elevation
Unknown
Doppler factor
Unknown
Orbital elements
Apogee altitude
480.268 km
Perigee altitude
468.72 km
Semi-major axis
6,852.631 km
Eccentricity
0.00084
Inclination
97.5032°
RAAN
271.1064°
Arg. of periapsis
343.7287°
True anomaly
16.39534°
Mean anomaly
16.3681°
Eccentric anomaly
16.38172°
Mean motion
3.82611 °/min
Orbital period
94.09 mins
BSTAR
0.00042079
Loading maneuver chart data...
Computing Atmospheric mass density...
Loading historical data...
Loading historical data...
Loading historical data...
Loading historical data...
Loading historical data...
Loading historical data...
Loading historical data...

Documentation

Showing up to 5 results
|